COSMOS 2494 (SKRL-756 2)

Last updated on Fri Dec 29 2023 00:03:35 GMT+0000 (Coordinated Universal Time)

1 39491U 13078B 23362.42052771 .00004130 00000+0 37941-3 0 9993 2 39491 82.4164 49.7640 0019977 13.5851 346.5903 14.94453983543708
UTC large
Height (km)
Speed (km/s)
/
Latitude / Longitude
Inclination (degrees)
Orbital Period (minutes)
Azimuth
Elevation
Range (km)
Doppler Factor

Next 0 passes for location: London (51.5072 / 0.1276)

Sorry there are no passes over London.
COSMOS 2494 (SKRL-756 2)